Regional Weather Roundup
Issued by NWS

Home | Current Version | Previous Version | Graphics & Text | Print | Product List | Glossary On
Versions: 1 2 3 4 5 6 7 8 9 10 11 12 13 14 15 16 17 18 19 20 21 22 23 24 25 26 27 28 29 30 31 32 33 34 35 36 37 38 39 40 41 42 43 44 45 46 47 48 49 50
000
ASUS43 KLOT 191710
RWRIL

ILLINOIS REGIONAL WEATHER ROUNDUP
NATIONAL WEATHER SERVICE CHICAGO/ROMEOVILLE IL
1200 PM CDT FRI SEP 19 2014

NOTE: "FAIR" INDICATES FEW OR NO CLOUDS BELOW 12,000 FEET WITH NO
SIGNIFICANT WEATHER AND/OR OBSTRUCTIONS TO VISIBILITY.

* THESE STATIONS ARE NOT UNDER NWS QUALITY CONTROL. THEY ALSO MAY NOT
  REPORT WEATHER SUCH AS PRECIPITATION OR FOG.

ILZ001-002-007-009-015-016-024-191800-
NORTHWEST ILLINOIS

CITY           SKY/WX    TMP DP  RH WIND       PRES   REMARKS
MOLINE         SUNNY     71  52  50 S14       30.08F
STERLING*      SUNNY     72  52  49 S9G16     30.10F
SAVANNA*       SUNNY     71  52  50 SW14      30.07F
$$

ILZ003-004-008-010-011-017-018-191800-
NORTH CENTRAL ILLINOIS

CITY           SKY/WX    TMP DP  RH WIND       PRES   REMARKS
ROCKFORD       MOSUNNY   71  50  47 S18       30.12F
FREEPORT*      SUNNY     70  55  57 S17       30.11F
ROCHELLE*      SUNNY     70  49  45 S15G22    30.12S
DE KALB*       SUNNY     68  50  53 S18G24    30.13F
PERU*          SUNNY     72  50  45 S16G22    30.12F
$$

ILZ005-006-012>014-019>023-191800-
NORTHEAST ILLINOIS

CITY           SKY/WX    TMP DP  RH WIND       PRES   REMARKS
CHICAGO-OHARE  MOSUNNY   71  51  49 S14G22    30.13F
CHICAGO-MIDWAY MOSUNNY   72  48  42 S15       30.13F
AURORA         SUNNY     71  50  47 S18G25    30.14F
LANSING*       SUNNY     69  52  53 S13       30.15F
JOLIET*        SUNNY     70  47  42 S12G17    30.15S
WAUKEGAN       SUNNY     69  51  52 S14       30.12F
DUPAGE AIRPORT SUNNY     71  50  47 S17       30.13F
KANKAKEE*      SUNNY     72  48  43 SE10      30.14F
WHEELING       SUNNY     72  50  45 S16       30.15F
MORRIS*        SUNNY     73  50  45 SE13G18   30.13F
ROMEOVILLE*    SUNNY     70  47  44 S15       30.14S
NORTHERLY ISL    N/A     70  47  43 S12         N/A
$$

LMZ740>746-191800-
SOUTHERN LAKE MICHIGAN

STATION/POSITION SKY/WX   TEMP    WIND        PRES    VSBY  WAVE
                          AIR SEA DIR/SP/G                  HT/PER
                          (F)     (DEG/KT/KT) (MB)    (MI)  (FT/S)
SOUTHERN BUOY              62 65  170/ 19/ 21 1020.3F         4/ 5
WAUKEGAN HARBOR            63     150/ 12/ 14   N/A
HARRISON CRIB              64     150/ 13/ 17   N/A
BURNHAM HARBOR             70     160/ 10/ 12   N/A
CALUMET HARBOR             69     150/  7/ 10 1019.5F
MICHIGAN CITY              66     160/ 10/ 16   N/A
MICHIGAN CITY 6N           66 65  170/  8/ 10   N/A           1/ 2
ST. JOSEPH                 65 65  160/ 10/ 12   N/A           1/ 2
$$

ILZ025>027-034>036-040-047-049-050-058-095>099-191800-
WEST-CENTRAL ILLINOIS

CITY           SKY/WX    TMP DP  RH WIND       PRES   REMARKS
QUINCY         SUNNY     72  54  53 S8        30.08F
GALESBURG*     SUNNY     71  53  52 S10G16    30.09F
MACOMB*        SUNNY     73  52  48 S12       30.11F
JACKSONVILLE*  SUNNY     75  56  51 S10       30.10F
PITTSFIELD*    SUNNY     74  53  46 S7        30.11S
$$

ILZ028>032-037-038-041>044-048-051>054-059>061-191800-
CENTRAL ILLINOIS

CITY           SKY/WX    TMP DP  RH WIND       PRES   REMARKS
PONTIAC        SUNNY     73  48  40 SE12G20   30.14S
DECATUR        SUNNY     73  50  44 SE16      30.13F
PEORIA         SUNNY     73  52  47 SE10      30.11F
LACON*         SUNNY     71  52  51 S13G18    30.11F
LINCOLN*       SUNNY     75  51  42 S12G18    30.10S
SPRINGFIELD    SUNNY     73  55  53 SE7G17    30.12F
TAYLORVILLE    SUNNY     72  54  53 S9        30.12F
$$

ILZ033-039-045-046-055>057-062-063-191800-
EAST-CENTRAL ILLINOIS

CITY           SKY/WX    TMP DP  RH WIND       PRES   REMARKS
CHAMPAIGN      SUNNY     72  49  44 SE12G21   30.15F
DANVILLE*      SUNNY     72  47  41 SE10G17   30.13F
RANTOUL*       SUNNY     74  42  31 SE14      30.15F
MATTOON        SUNNY     71  52  50 S10       30.13F
PARIS*         SUNNY     72  49  43 E9G16     30.15F
$$

ILZ079-100>102-191800-
SOUTHWEST ILLINOIS

CITY           SKY/WX    TMP DP  RH WIND       PRES   REMARKS
ALTON          SUNNY     73  55  53 SE8       30.11F
BELLEVILLE     SUNNY     74  59  58 E7        30.10F
CAHOKIA*       SUNNY     74  59  59 VRB6      30.10F
SPARTA*        SUNNY     75  57  54 SE8       30.11S
$$

ILZ064>066-069>071-074>076-080>082-084>086-088>090-092>094-191800-
SOUTH-CENTRAL ILLINOIS

CITY           SKY/WX    TMP DP  RH WIND       PRES   REMARKS
CARBONDALE     SUNNY     74  57  55 SE7       30.09F
CAIRO*         SUNNY     78  61  55 CALM      30.08F
EFFINGHAM*     SUNNY     73  48  40 SE12      30.12F
MARION         SUNNY     75  59  57 SE6       30.10F
MT. VERNON     SUNNY     73  57  56 SE7       30.13S
CENTRALIA*     SUNNY     73  55  52 SE8       30.11F
SALEM*         SUNNY     73  58  58 S9        30.12S
METROPOLIS*    SUNNY     78  60  54 E6        30.08F
$$

ILZ067-068-072-073-078-083-087-091-191800-
SOUTHEAST ILLINOIS

CITY           SKY/WX    TMP DP  RH WIND       PRES   REMARKS
LAWRENCEVILLE  SUNNY     75  51  43 SE12G20   30.13F
FLORA*         SUNNY     74  53  47 SE9       30.12F
FAIRFIELD*     SUNNY    N/A N/A N/A SE5       30.11F
HARRISBURG*    SUNNY     75  55  49 E6        30.10F
ROBINSON*      SUNNY     74  54  49 SE10G16   30.15S
CARMI*         SUNNY     78  56  45 E8        30.10F
$$

ABBREVIATIONS USED IN REMARKS
   TC - TEMPERATURE IN CELSIUS
  WCI - WIND CHILL INDEX
   HX - HEAT INDEX
  VSB - VISIBILITY
$$




USA.gov is the U.S. government's official web portal to all federal, state and local government web resources and services.